User: anonymous   Login
Location: Unspecified
(39.1833°N, 0.0000°E)
Time: 09:51:46
(UTC+00:00)
Language:

RS-15 - Orbit

View from above orbital plane
View from above orbital plane
View from above satellite
View from above satellite

Ground track
Ground track

The orbit data is extracted from the following two-line orbital elements,

1 23439U 94085A   20025.53252228 -.00000055 +00000-0 -37210-3 0  9993
2 23439 064.8164 118.9955 0146159 069.9284 291.7304 11.27568946032790
Epoch (UTC): 25 January 2020 12:46:49
Eccentricity: 0.0146159
inclination: 64.8164°
perigee height: 1899 km
apogee height: 2145 km
right ascension of ascending node: 118.9955°
argument of perigee: 69.9284°
revolutions per day: 11.27568946
mean anomaly at epoch: 291.7304°
orbit number at epoch: 3279

The dashed part of the orbit path shows where the satellite is in the earth's shadow,  

DLR